TimeEST,TemperatureF,Dew PointF,Humidity,Sea Level PressureIn,VisibilityMPH,Wind Direction,Wind SpeedMPH,Gust SpeedMPH,PrecipitationIn,Events,Conditions,WindDirDegrees,DateUTC
12:15 AM,21.7,21.4,99,30.17,10.0,Calm,Calm,-,N/A,,Clear,0,2013-01-04 05:15:00
12:35 AM,21.9,21.4,98,30.16,10.0,NW,3.5,-,N/A,,Clear,310,2013-01-04 05:35:00
12:55 AM,21.9,21.9,100,30.17,10.0,SE,4.6,-,N/A,,Clear,140,2013-01-04 05:55:00
1:15 AM,22.3,22.3,100,30.17,10.0,Calm,Calm,-,N/A,,Clear,0,2013-01-04 06:15:00
1:35 AM,20.8,20.8,100,30.17,10.0,Calm,Calm,-,N/A,,Clear,0,2013-01-04 06:35:00
1:55 AM,21.4,21.4,100,30.17,10.0,Calm,Calm,-,N/A,,Clear,0,2013-01-04 06:55:00
2:15 AM,20.1,20.1,100,30.18,10.0,Calm,Calm,-,N/A,,Clear,0,2013-01-04 07:15:00
2:35 AM,20.5,20.5,100,30.18,10.0,Calm,Calm,-,N/A,,Clear,0,2013-01-04 07:35:00
2:55 AM,21.9,21.9,100,30.20,10.0,Calm,Calm,-,N/A,,Clear,0,2013-01-04 07:55:00
3:15 AM,20.8,20.8,100,30.20,10.0,Calm,Calm,-,N/A,,Clear,0,2013-01-04 08:15:00
3:55 AM,19.4,19.4,100,30.20,10.0,Calm,Calm,-,N/A,,Clear,0,2013-01-04 08:55:00
4:15 AM,20.1,20.1,100,30.20,10.0,East,3.5,-,N/A,,Clear,90,2013-01-04 09:15:00
6:55 AM,18.7,18.7,100,30.21,10.0,Calm,Calm,-,N/A,,Clear,0,2013-01-04 11:55:00
7:15 AM,18.7,18.7,100,30.21,10.0,Calm,Calm,-,N/A,,Clear,0,2013-01-04 12:15:00
7:35 AM,17.2,17.2,100,30.21,10.0,Calm,Calm,-,N/A,,Clear,0,2013-01-04 12:35:00
7:55 AM,18.5,18.5,100,30.21,10.0,Calm,Calm,-,N/A,,Clear,0,2013-01-04 12:55:00
8:15 AM,21.0,21.0,100,30.21,10.0,Calm,Calm,-,N/A,,Clear,0,2013-01-04 13:15:00
8:35 AM,23.4,23.4,100,30.21,10.0,Calm,Calm,-,N/A,,Clear,0,2013-01-04 13:35:00
8:55 AM,27.1,26.2,96,30.20,10.0,Calm,Calm,-,N/A,,Clear,0,2013-01-04 13:55:00
9:15 AM,30.7,28.6,92,30.20,10.0,Calm,Calm,-,N/A,,Clear,0,2013-01-04 14:15:00
9:35 AM,32.4,29.3,88,30.21,10.0,SW,3.5,-,N/A,,Clear,230,2013-01-04 14:35:00
9:55 AM,34.9,29.7,81,30.21,10.0,Calm,Calm,-,N/A,,Clear,0,2013-01-04 14:55:00
10:15 AM,37.8,30.6,75,30.22,10.0,Calm,Calm,-,N/A,,Clear,0,2013-01-04 15:15:00
10:35 AM,39.0,29.8,70,30.22,10.0,Calm,Calm,-,N/A,,Clear,0,2013-01-04 15:35:00
10:55 AM,40.3,28.9,64,30.21,10.0,SW,3.5,-,N/A,,Clear,230,2013-01-04 15:55:00
11:15 AM,41.2,30.2,65,30.20,10.0,SSW,9.2,-,N/A,,Clear,210,2013-01-04 16:15:00
11:35 AM,41.7,28.9,61,30.19,10.0,SSW,3.5,-,N/A,,Clear,200,2013-01-04 16:35:00
11:55 AM,43.3,28.6,56,30.18,10.0,WSW,5.8,-,N/A,,Clear,240,2013-01-04 16:55:00
12:15 PM,44.1,29.1,56,30.18,10.0,SW,6.9,-,N/A,,Clear,230,2013-01-04 17:15:00
12:35 PM,44.4,28.6,54,30.16,10.0,West,8.1,-,N/A,,Clear,280,2013-01-04 17:35:00
12:55 PM,44.2,27.3,51,30.14,10.0,West,8.1,-,N/A,,Clear,280,2013-01-04 17:55:00
1:15 PM,45.3,28.0,51,30.13,10.0,West,6.9,-,N/A,,Clear,270,2013-01-04 18:15:00
1:55 PM,45.9,27.5,49,30.13,10.0,West,6.9,-,N/A,,Clear,260,2013-01-04 18:55:00
2:15 PM,46.4,28.2,49,30.12,10.0,WSW,9.2,-,N/A,,Clear,240,2013-01-04 19:15:00
2:35 PM,46.4,28.2,49,30.12,10.0,SW,8.1,-,N/A,,Clear,220,2013-01-04 19:35:00
2:55 PM,47.3,28.8,49,30.11,10.0,Calm,Calm,-,N/A,,Clear,0,2013-01-04 19:55:00
3:15 PM,47.3,27.3,46,30.11,10.0,SW,4.6,-,N/A,,Clear,230,2013-01-04 20:15:00
3:35 PM,45.1,27.7,50,30.11,10.0,WNW,3.5,-,N/A,,Clear,290,2013-01-04 20:35:00
3:55 PM,44.1,27.1,51,30.12,10.0,West,3.5,-,N/A,,Clear,270,2013-01-04 20:55:00
4:15 PM,43.0,26.8,53,30.12,10.0,Calm,Calm,-,N/A,,Clear,0,2013-01-04 21:15:00
4:35 PM,41.7,27.9,58,30.11,10.0,Calm,Calm,-,N/A,,Clear,0,2013-01-04 21:35:00
4:55 PM,41.0,27.5,59,30.11,10.0,WSW,3.5,-,N/A,,Clear,250,2013-01-04 21:55:00
5:15 PM,39.9,27.7,62,30.12,10.0,ESE,5.8,-,N/A,,Clear,110,2013-01-04 22:15:00
5:35 PM,39.0,27.9,64,30.12,10.0,WNW,3.5,-,N/A,,Clear,290,2013-01-04 22:35:00
5:55 PM,39.6,27.5,62,30.13,10.0,WNW,5.8,-,N/A,,Clear,290,2013-01-04 22:55:00
6:15 PM,39.2,26.6,61,30.13,10.0,WNW,5.8,-,N/A,,Clear,300,2013-01-04 23:15:00
6:35 PM,38.7,25.7,60,30.13,10.0,WNW,4.6,-,N/A,,Clear,290,2013-01-04 23:35:00
6:55 PM,37.0,25.7,64,30.13,10.0,Calm,Calm,-,N/A,,Clear,0,2013-01-04 23:55:00
7:15 PM,32.0,25.5,77,30.15,10.0,West,3.5,-,N/A,,Clear,270,2013-01-05 00:15:00
7:55 PM,34.7,24.6,67,30.16,10.0,Calm,Calm,-,N/A,,Clear,0,2013-01-05 00:55:00
8:15 PM,36.0,24.1,62,30.16,10.0,Calm,Calm,-,N/A,,Clear,0,2013-01-05 01:15:00
8:35 PM,32.4,24.4,73,30.16,10.0,Calm,Calm,-,N/A,,Clear,0,2013-01-05 01:35:00
8:55 PM,34.5,23.7,65,30.17,10.0,Calm,Calm,-,N/A,,Clear,0,2013-01-05 01:55:00
9:15 PM,34.0,23.7,66,30.18,10.0,Calm,Calm,-,N/A,,Clear,0,2013-01-05 02:15:00
9:35 PM,33.8,23.7,67,30.18,10.0,WSW,3.5,-,N/A,,Clear,240,2013-01-05 02:35:00
9:55 PM,36.7,24.4,61,30.18,10.0,West,3.5,-,N/A,,Clear,270,2013-01-05 02:55:00
10:15 PM,36.7,23.7,59,30.18,10.0,West,3.5,-,N/A,,Clear,280,2013-01-05 03:15:00
10:35 PM,34.0,23.7,66,30.17,10.0,WSW,3.5,-,N/A,,Clear,250,2013-01-05 03:35:00
10:55 PM,34.2,23.7,66,30.18,10.0,SW,3.5,-,N/A,,Clear,230,2013-01-05 03:55:00
11:15 PM,31.3,23.4,72,30.18,10.0,Calm,Calm,-,N/A,,Clear,0,2013-01-05 04:15:00
11:35 PM,30.4,23.0,74,30.17,10.0,Calm,Calm,-,N/A,,Clear,0,2013-01-05 04:35:00
11:55 PM,26.4,22.6,86,30.17,10.0,Calm,Calm,-,N/A,,Clear,0,2013-01-05 04:55:00